Grand Junction, CO

4:40 AM MDT on October 21, 2019 (GMT -0600)
Walker

Weather History for KGJT - March, 2019

Change the Weather History Date:

Wednesday, March 27, 2019

  Actual Average Record
Temperature  
Mean Temperature 55 °F 46 °F  
Max Temperature 70 °F 60 °F 77 °F (1988)
Min Temperature 39 °F 33 °F 16 °F (1975)
Degree Days  
Heating Degree Days 10 18  
Month to date heating degree days 577 581  
Since 1 July heating degree days 5032 4960  
Cooling Degree Days 0 0  
Month to date cooling degree days 0 0  
Year to date cooling degree days 0 0  
Growing Degree Days 4 (Base 50)    
Moisture  
Dew Point 33 °F    
Average Humidity 50    
Maximum Humidity 76    
Minimum Humidity 24    
Precipitation  
Precipitation 0.00 in 0.03 in 1.00 in (1993)
Month to date precipitation 2.28 0.78  
Year to date precipitation 3.72 1.90  
Snow  
Snow 0.00 in 0.10 in 1.80 in (1901)
Month to date snowfall 0.0 2.3  
Since 1 July snowfall 17.4 17.8  
Snow Depth 0.00 in    
Sea Level Pressure  
Sea Level Pressure 29.91 in    
Wind  
Wind Speed 7 mph (ENE)    
Max Wind Speed 16 mph    
Max Gust Speed 20 mph    
Visibility 10 miles    
Events      
T = Trace of Precipitation, MM = Missing Value Source: NWS Daily Summary

Daily Weather History Graph

Daily Weather History Graph

Search for Another Location

Airport or City:

Astronomy

Mar. 27, 2019 Rise Set
Actual Time 7:06 AM MDT 7:32 PM MDT
Civil Twilight 6:39 AM MDT 7:59 PM MDT
Nautical Twilight 6:08 AM MDT 8:31 PM MDT
Astronomical Twilight 5:36 AM MDT 9:03 PM MDT
Moon 1:56 AM MDT (3/27) 11:46 AM MDT (3/27)
Length of Visible Light 13h 19m
Length of Day
12h 26m
Waning Gibbous, 54% of the Moon is Illuminated
Mar 27
Waning Gibbous
Mar 27
Last Quarter
Apr 5
New
Apr 12
First Quarter
Apr 19
Full

Hourly Weather History & Observations

Time (MDT) Temp. Windchill Dew Point Humidity Pressure Visibility Wind Dir Wind Speed Gust Speed Precip Events Conditions
12:53 AM 46.9 °F - 36.0 °F 66% 29.94 in 10.0 mi ESE 9.2 mph - N/A   Clear
1:53 AM 48.9 °F - 33.1 °F 54% 29.91 in 10.0 mi East 4.6 mph - N/A   Clear
2:53 AM 46.0 °F 44.8 °F 34.0 °F 63% 29.90 in 10.0 mi ESE 3.5 mph - N/A   Clear
3:53 AM 45.0 °F - 33.1 °F 63% 29.91 in 10.0 mi Calm Calm - N/A   Clear
4:53 AM 42.1 °F 37.1 °F 33.1 °F 70% 29.92 in 10.0 mi ESE 8.1 mph - N/A   Clear
5:53 AM 43.0 °F 36.8 °F 33.1 °F 68% 29.93 in 10.0 mi SE 11.5 mph - N/A   Clear
6:53 AM 39.0 °F 34.8 °F 32.0 °F 76% 29.96 in 10.0 mi East 5.8 mph - N/A   Clear
7:53 AM 42.1 °F 40.2 °F 32.0 °F 67% 29.98 in 10.0 mi Variable 3.5 mph - N/A   Clear
8:53 AM 48.9 °F - 35.1 °F 59% 29.98 in 10.0 mi SE 5.8 mph - N/A   Clear
9:53 AM 54.0 °F - 34.0 °F 47% 29.97 in 10.0 mi ESE 9.2 mph - N/A   Clear
10:53 AM 60.1 °F - 34.0 °F 38% 29.95 in 10.0 mi ESE 8.1 mph - N/A   Clear
11:53 AM 64.0 °F - 33.1 °F 31% 29.91 in 10.0 mi East 6.9 mph - N/A   Clear
12:53 PM 68.0 °F - 32.0 °F 26% 29.88 in 10.0 mi Calm Calm - N/A   Clear
1:53 PM 69.1 °F - 33.1 °F 26% 29.86 in 10.0 mi NW 15.0 mph - N/A   Clear
2:53 PM 66.9 °F - 32.0 °F 27% 29.86 in 10.0 mi WNW 11.5 mph - N/A   Clear
3:53 PM 68.0 °F - 30.9 °F 25% 29.85 in 10.0 mi NNW 5.8 mph - N/A   Clear
4:53 PM 68.0 °F - 32.0 °F 26% 29.86 in 10.0 mi NW 9.2 mph - N/A   Clear
5:53 PM 66.0 °F - 32.0 °F 28% 29.88 in 10.0 mi NW 11.5 mph - N/A   Clear
6:53 PM 63.0 °F - 34.0 °F 34% 29.91 in 10.0 mi NNW 10.4 mph - N/A   Clear
7:53 PM 59.0 °F - 35.1 °F 41% 29.93 in 10.0 mi NE 8.1 mph - N/A   Clear
8:53 PM 55.0 °F - 35.1 °F 47% 29.93 in 10.0 mi NE 4.6 mph - N/A   Clear
9:53 PM 54.0 °F - 35.1 °F 49% 29.91 in 10.0 mi Calm Calm - N/A   Clear
10:53 PM 53.1 °F - 33.1 °F 47% 29.90 in 10.0 mi SSE 4.6 mph - N/A   Clear
11:53 PM 48.0 °F - 32.0 °F 54% 29.90 in 10.0 mi East 4.6 mph - N/A   Clear